sat.trackr.live / text

‹ back to catalog

STARLINK-3507

NORAD 51753 · 2022-016AR

PAYLOAD ACTIVE UNKNOWN

§ Identity

Operator
Country
US
Launch date
2022-02-21
Launch site
AFETR
Launch vehicle
Mass (kg)
RCS (m²)

Purposes: comms

External: N2YO · Heavens-Above · Gunter

§ Orbital elements

Epoch: 2026-09-19T22:18:03.187584Z

Period
93.90 min
Inclination
53.1590°
Eccentricity
0.0001269
Mean motion
15.33544969 rev/d
Perigee alt
464.4 km
Apogee alt
466.1 km
Semi-major
6,843.4 km
B*
7.0392e-6
RAAN
142.5549°
Arg perigee
93.4423°
Mean anomaly
266.6725°
Rev number
25,322

§ Raw data

STARLINK-35071 51753U 22016AR  26262.92920356 -.00000141  00000+0  70392-5 0  99982 51753  53.1590 142.5549 0001269  93.4423 266.6725 15.33544969253226

JSON: /api/v1/satellites/51753 · /tle

For live sub-satellite position, see the globe view (requires WebGL).

§ Visibility from observer

Set your observer location to see the next 7 days of passes ≥ 10°. The values pass through the URL so the page stays shareable.

No JS? Fill the form by hand. The geolocation button needs JavaScript.